Location: Delettes
(50.6178°N, 2.2123°E)
Time: 04:45:11
(UTC+00:00)

STARLINK-74 - Pass Details

Date: 27 February 2020
Orbit: 529 x 530 km, 53.0° (Epoch: 29 March)

Event Time Altitude Azimuth Distance (km) Brightness Sun altitude
Rises 18:55:29 0° 276° (W) 2,669 9.1 -14.6°
Reaches altitude 10° 18:57:43 10° 280° (W) 1,780 7.6 -14.9°
Maximum altitude 19:01:43 60° 1° (N) 611 3.8 -15.6°
Enters shadow 19:03:35 29° 72° (ENE) 996 4.4 -15.9°
